Regional Weather Roundup
Issued by NWS

Home | Current Version | Previous Version | Graphics & Text | Print | Product List | Glossary On
Versions: 1 2 3 4 5 6 7 8 9 10 11 12 13 14 15 16 17 18 19 20 21 22 23 24 25 26 27 28 29 30 31 32 33 34 35 36 37 38 39 40 41 42 43 44 45 46 47 48 49 50
000
ASUS43 KDMX 051103
RWRIA

WEATHER ROUNDUP FOR IOWA
NATIONAL WEATHER SERVICE DES MOINES IA
600 AM CDT THU MAY 05 2016

NOTE: "FAIR" INDICATES FEW OR NO CLOUDS BELOW 12,000 FEET WITH NO
SIGNIFICANT WEATHER AND/OR OBSTRUCTIONS TO VISIBILITY.

* - THESE STATIONS ARE NOT NWS STATIONS...THUS NOT UNDER NWS
QUALITY CONTROL.  THEY ALSO DO NOT REPORT WEATHER SUCH
AS PRECIPITATION OR FOG.

IAZ001>003-012>014-020>022-031>034-043>046-051200-
   NORTHWEST IOWA

CITY           SKY/WX    TMP DP  RH WIND       PRES   REMARKS
CARROLL *      CLEAR     39  37  93 W5        30.04R
CHEROKEE *     CLEAR     38  38 100 CALM      30.04S
DENISON *      CLEAR     39  37  93 CALM      30.02S
LE MARS *      CLEAR     39  37  93 CALM      30.06R
ORANGE CITY *  CLEAR     45  36  70 CALM      30.04R
SHELDON *      MOCLDY    37  36  93 CALM      30.03R
SIOUX CITY     CLEAR     42  37  82 N3        30.05R
SPENCER        CLEAR     37  34  89 CALM      30.04R
STORM LAKE *   CLEAR     50  34  53 CALM      30.04R
$$

IAZ055>058-069>071-079>083-090>094-051200-
   SOUTHWEST IOWA

CITY           SKY/WX    TMP DP  RH WIND       PRES   REMARKS
ATLANTIC *     CLEAR     39  37  93 N3        30.04R
AUDUBON *      CLEAR     37  34  87 CALM      30.05R
CLARINDA *       N/A    N/A N/A N/A MISG        N/A
COUNCIL BLFS * CLEAR     48  39  71 CALM      30.04R
CRESTON *      CLEAR     46  36  66 N5        30.04R
HARLAN  *      CLEAR     39  37  93 CALM      30.08R
LAMONI         CLEAR     45  36  70 N6        30.02R
RED OAK *      CLEAR     41  37  87 N3        30.04R
SHENANDOAH *   CLEAR     41  41 100 CALM      30.05R
$$

IAZ047>049-059>061-072>074-084-051200-
   CENTRAL IOWA

CITY           SKY/WX    TMP DP  RH WIND       PRES   REMARKS
AMES           CLEAR     41  33  73 N5        30.04R
ANKENY *       CLEAR     37  36  93 N5        30.04R WCI  34
BOONE *        CLEAR     41  32  70 NE7       30.03R
CHARITON *     CLEAR     45  34  65 NE6       30.02R
DES MOINES     PTCLDY    45  37  73 CALM      30.04R
GRINNELL*      CLEAR     37  32  81 CALM      30.03R
KNOXVILLE *    CLEAR     41  36  81 CALM      30.02R
MARSHALLTOWN   CLEAR     36  29  75 NW5       30.03R WCI  32
NEWTON *       CLEAR     43  30  61 NE6       30.03R
PELLA *        CLEAR     40  32  72 CALM      30.04R
PERRY *          N/A     43  39  87 N3        30.04R
$$

IAZ004>006-015-016-023>025-035-036-051200-
   NORTH CENTRAL IOWA

CITY           SKY/WX    TMP DP  RH WIND       PRES   REMARKS
ALGONA *       CLEAR     43  39  87 CALM      30.03S
CLARION *      CLEAR     37  30  75 E6        30.04R WCI  33
ESTHERVILLE    CLEAR     38  35  89 W3        30.03R
FORT DODGE *   CLEAR     36  30  80 CALM      30.04S
MASON CITY     CLEAR     34  29  82 CALM      30.05R
FOREST CITY *    N/A     34  32  93 CALM      30.04S
WEBSTER CITY * CLEAR     37  32  81 N3        30.02S
IOWA FALLS *     N/A     39  30  70 CALM      30.04S
$$

IAZ007>011-017>019-026>030-037>042-050>054-066-051200-
   NORTHEAST IOWA

CITY           SKY/WX    TMP DP  RH WIND       PRES   REMARKS
CEDAR RAPIDS   CLEAR     37  32  82 NW6       30.01R WCI  32
CHARLES CITY * CLEAR     39  27  60 N6        30.04R WCI  35
CLINTON *      CLEAR     38  34  85 N9        30.00R WCI  31
DECORAH *      CLEAR     37  30  75 CALM      30.03R
DUBUQUE        CLEAR     40  33  76 NE7       30.00R
MONTICELLO *   CLEAR     39  34  81 N6        30.01R WCI  35
OELWEIN *      CLEAR     39  30  70 N6        30.03S WCI  35
WATERLOO       CLEAR     34  31  88 CALM      30.03R
$$

IAZ064-065-067-068-078-051200-
   EAST CENTRAL IOWA

CITY           SKY/WX    TMP DP  RH WIND       PRES   REMARKS
DAVENPORT      CLEAR     40  34  79 N5        30.00R
IOWA CITY      CLEAR     43  32  65 N3        30.02R
MT. PLEASANT * CLEAR     43  34  70 N7        29.99R
MUSCATINE *    CLEAR     41  34  75 N6        30.01R
QUAD CITIES    CLEAR     39  35  86 CALM      29.99R
$$

IAZ062-063-075>077-085>089-095>099-051200-
   SOUTHEAST IOWA

CITY           SKY/WX    TMP DP  RH WIND       PRES   REMARKS
BURLINGTON     CLEAR     41  35  79 N7        29.99R
FAIRFIELD *    CLEAR     39  32  75 N7        30.01R WCI  34
FORT MADISON * CLEAR     39  34  81 N6        30.00R WCI  35
KEOKUK *       CLEAR     43  36  75 N3        29.98R
OSKALOOSA *      N/A     39  32  75 N7        30.02R WCI  34
OTTUMWA        CLEAR     38  30  73 N7        30.02R WCI  33
WASHINGTON *   CLEAR     39  32  75 N8        30.02R WCI  34
$$

ABBREVIATIONS USED IN REMARKS
   TC - TEMPERATURES IN CELSIUS
  WCI - WIND CHILL INDEX
   HX - HEAT INDEX
  VSB - VISIBILITY
$$





USA.gov is the U.S. government's official web portal to all federal, state and local government web resources and services.